Preview of NWS' New Version of Forecast
This preview is not operational and should not be used for support decisions.

Regional Weather Roundup (RWR)

Issued by National Weather Service (NWS)

                            
000
ASUS45 KBOU 200510
RWRCO 

WEATHER ROUNDUP FOR COLORADO
NATIONAL WEATHER SERVICE DENVER/BOULDER CO
1100 PM MDT WED JUN 19 2019

NOTE: "FAIR" INDICATES FEW OR NO CLOUDS BELOW 12000 FEET WITH NO
SIGNIFICANT WEATHER AND/OR OBSTRUCTIONS TO VISIBILITY.

COZ001>005-013-030-031-200600-
...NORTHWEST COLORADO...
  
CITY           SKY/WX    TMP DP  RH WIND       PRES   REMARKS
CRAIG          FAIR      58  41  53 CALM      29.95R                  
HAYDEN         FAIR      63  39  41 W5        29.98R                  
MEEKER         FAIR      55  45  68 NE8       29.97S                  
RANGELY        FAIR      66  35  31 SW3       29.89S                  
RABBIT EARS PA NOT AVBL                                               
STEAMBOAT SPGS MOCLDY    56  49  77 SE7       29.99S                  
WALDEN         FAIR      54  43  66 SW8       30.07S                  
$$

COZ006>008-011-200600-
...WEST CENTRAL VALLEYS...
  
CITY           SKY/WX    TMP DP  RH WIND       PRES   REMARKS
GRAND JUNCTION FAIR      66  41  40 E3        29.87R                  
MONTROSE       FAIR      64  42  44 SE12      29.99S                  
EAGLE          FAIR      58  44  60 E10       30.02S                  
RIFLE          FAIR      62  45  53 E5        29.92R                  
DELTA          FAIR      67  37  33 E8        29.93R                  
NUCLA          FAIR      64  36  34 E9        30.01S                  
$$

COZ017>023-064>068-200600-
...SOUTHWEST COLORADO...
  
CITY           SKY/WX    TMP DP  RH WIND       PRES   REMARKS
DURANGO        FAIR      57  36  45 N6        30.08R                  
CORTEZ         FAIR      58  40  51 NE8       30.02R                  
PAGOSA SPRINGS FAIR      53  37  53 CALM      30.17R                  
TELLURIDE      FAIR      54  37  54 SE6       30.27S                  
WOLF CREEK PAS FAIR      45  30  57 SW14G20   30.48F                  
$$

COZ009-010-012-014-032>034-037-058>063-200600-
...CENTRAL COLORADO...
  
CITY           SKY/WX    TMP DP  RH WIND       PRES   REMARKS
ASPEN          FAIR      53  37  54 S10       30.10S                  
BUENA VISTA    FAIR      56  32  40 NW6       30.11S                  
COPPER MTN     FAIR      46  32  57 W25G38    30.35F                  
BERTHOUD PASS  FAIR      39  32  75 W45G55    30.30F                  
COTTONWOOD PAS FAIR      55  28  35 NW6       30.23F                  
GUNNISON       FAIR      54  40  59 N6        30.12F                  
GRANBY         MOCLDY    52  41  65 SE5       30.08F                  
KREMMLING      FAIR      54  45  71 CALM      30.04F                  
LEADVILLE      FAIR      45  32  60 E7        30.22F                  
MONARCH PASS   FAIR      43  32  65 MISG      30.48F                  
SALIDA         FAIR      62  34  35 W12       30.15S                  
SUNLIGHT       FAIR      45  32  61 SW16G28   30.30S                  
WILKERSON PASS FAIR      46  27  46 SW12G21   30.33S                  
$$

COZ069>075-200600-
...SAN LUIS VALLEY/SANGRE DE CRISTO MOUNTAINS...
  
CITY           SKY/WX    TMP DP  RH WIND       PRES   REMARKS
ALAMOSA        FAIR      56  38  50 W8        30.11R                  
DEL NORTE      FAIR      58  32  38 CALM      30.16R                  
LA VETA PASS   NOT AVBL                                               
SAGUACHE       FAIR      54  36  50 CALM      30.13S                  
$$

COZ035-036-038>040-200600-
...NORTHERN COLORADO FRONT RANGE...
  
CITY           SKY/WX    TMP DP  RH WIND       PRES   REMARKS
DENVER INTL AP MOCLDY    68  50  52 S9        29.84F                  
AURORA         MOCLDY    64  49  57 S9        29.87F                  
FRONT RANGE AP FAIR      68  53  58 S5        29.87S                  
ERIE MUNI ARPT FAIR      71  37  29 S8        29.87S                  
BOULDER MUN AP FAIR      72  37  28 SE9       29.82F                  
CENTENNIAL     MOCLDY    68  41  37 SW8       29.89F                  
BROOMFIELD     FAIR      68  39  34 SW6       29.86F                  
FORT COLLINS   FAIR      72  44  36 SW8       29.79F                  
LONGMONT       FAIR      67  46  47 SW5       29.82F                  
$$

COZ041-046-047-076>085-087-088-200600-
...PIKES PEAK/PALMER DIVIDE AND SOUTHERN FOOTHILLS...
  
CITY           SKY/WX    TMP DP  RH WIND       PRES   REMARKS
COLO. SPRINGS  FAIR      62  47  57 SE3       29.98S                  
A. F. ACADEMY  FAIR      62  43  49 CALM      29.97F                  
SCHRIEVER AFB  NOT AVBL                                               
CHEYENNE MTN   NOT AVBL                                               
ELLICOTT         N/A    N/A N/A N/A S12       29.95S                  
FALCON         FAIR      57  43  58 W6        30.02F                  
FORT CARSON    CLEAR     65  44  47 S7        29.93S                  
LIMON          FAIR      61  50  67 S10G18    29.90S                  
MONUMENT HILL  FAIR      55  43  62 S8        30.01F                  
CANON CITY     FAIR      70  36  28 N10       29.90F                  
WALSENBURG     NOT AVBL                                               
TRINIDAD       FAIR      63  40  42 W9        29.94R                  
$$

COZ042>045-048>051-090-091-200600-
...NORTHEAST COLORADO...
  
CITY           SKY/WX    TMP DP  RH WIND       PRES   REMARKS
GREELEY ARPT   FAIR      62  55  77 S6        29.78F                  
AKRON          FAIR      64  51  62 S12       29.80F                  
BURLINGTON     FAIR      63  52  67 S13       29.82F                  
WRAY           FAIR      64  52  63 S9        29.76F                  
YUMA           FAIR      59  43  55 S8        29.78F                  
STERLING       FAIR      59  54  82 S8        29.74F                  
HOLYOKE        FAIR      63  54  72 S7        29.76S                  
FORT MORGAN    FAIR      61  51  70 S6        29.78F                  
$$

COZ086-089-092>099-200600-
...SOUTHEAST COLORADO...
  
CITY           SKY/WX    TMP DP  RH WIND       PRES   REMARKS
PUEBLO         FAIR      68  50  52 NE9       29.85S                  
LA JUNTA       FAIR      71  49  45 SE10G20   29.82F                  
LAMAR          FAIR      66  54  65 S10       29.80R                  
SPRINGFIELD      N/A     60  53  77 S9        29.87S                  
$$